User: anonymous   Login
Location: Aalen
(48.8330°N, 10.1000°E)
Time: 21:29:51
(UTC+01:00)
Language:

COSMOS 2251 DEB - Orbit

View from above orbital plane
View from above orbital plane
View from above satellite
View from above satellite

Ground track
Ground track

The orbit data is extracted from the following two-line orbital elements,

1 37994U 93036BQV 22024.34671679  .00000305  00000-0  11497-3 0  9999
2 37994  74.0387   4.2686 0022805  72.7459 287.6186 14.35383487566887
Epoch (UTC): 24 January 2022 08:19:16
Eccentricity: 0.0022805
inclination: 74.0387°
perigee height: 757 km
apogee height: 790 km
right ascension of ascending node: 4.2686°
argument of perigee: 72.7459°
revolutions per day: 14.35383487
mean anomaly at epoch: 287.6186°
orbit number at epoch: 56688

The dashed part of the orbit path shows where the satellite is in the earth's shadow,  

DLR